Theta_e
301 301 302 302 301 300 295 289 280 290 298 278 281 274 283 289 289 291 288 289 287 285 287 286 289 288 291 293 292 287 289 287 280 283 289 295 292 290 291 284 284 286 287 284
301 301 302 302 301 299 289 285 285 291 293 278 271 281 285 287 287 287 286 286 289 289 286 283 290 290 294 294 291 288 289 285 279 281 287 291 289 291 290 290 289 284 282 284
301 302 302 302 301 300 290 285 275 281 286 287 282 279 281 282 290 288 289 287 290 287 285 287 286 289 293 294 292 296 292 285 283 278 282 288 286 289 291 289 285 286 287 289
301 301 302 301 301 300 289 285 277 283 277 282 281 283 284 283 283 289 291 288 287 286 281 283 282 287 289 292 295 290 288 281 284 286 288 288 288 289 290 288 289 286 288 290
301 301 302 302 301 300 287 281 281 284 283 285 285 284 283 283 285 286 285 285 287 287 284 285 282 286 286 286 290 288 288 281 282 281 286 287 285 286 286 290 291 290 291 290
301 301 302 302 301 296 284 285 284 282 280 281 281 282 282 283 285 288 289 288 286 285 287 289 290 290 290 289 288 285 286 283 281 278 283 283 279 286 287 291 292 292 288 294
300 301 301 302 302 297 287 285 283 277 273 279 280 282 283 284 285 284 288 289 287 291 295 293 291 290 290 289 289 290 285 283 282 278 280 272 284 290 295 292 293 295 295 297
300 301 301 301 302 301 289 289 284 281 274 280 281 282 283 284 286 286 288 291 293 294 291 284 282 282 282 285 288 287 288 283 278 276 276 280 284 289 289 288 290 298 297 298
300 301 301 302 302 302 295 290 289 284 278 277 284 281 283 280 281 282 287 292 293 292 285 281 278 276 280 280 283 288 286 285 280 277 275 271 283 292 296 296 286 297 299 298
301 301 301 302 302 302 298 293 292 287 279 282 283 281 281 285 284 282 284 288 288 290 281 280 278 278 284 278 280 281 280 280 278 278 277 280 289 293 297 283 284 295 297 298
301 301 302 302 303 303 299 295 294 289 279 283 286 286 283 285 286 282 285 281 285 285 278 279 279 277 281 281 283 281 280 277 277 279 278 274 292 293 287 292 294 295 294 295
300 301 302 302 303 303 301 293 295 295 288 284 289 289 290 289 289 285 286 285 286 288 284 283 283 277 277 280 277 288 279 284 282 281 280 292 294 292 294 294 290 290 292 293
301 302 302 303 303 303 301 296 294 292 288 286 284 284 289 292 291 293 282 286 290 288 291 286 286 282 283 276 277 284 289 289 285 287 291 291 292 293 292 292 290 288 288 288
302 302 302 302 303 303 302 296 296 293 289 280 282 292 287 291 291 292 292 290 294 294 291 287 284 281 287 284 287 284 285 287 284 286 288 290 290 291 290 288 289 287 285 284
302 302 302 302 302 303 302 298 296 296 289 281 282 290 291 291 291 291 292 291 290 288 287 285 280 285 286 287 286 281 286 282 280 280 284 287 286 289 290 287 284 284 283 281
301 301 302 302 302 302 295 285 296 297 296 288 281 289 288 288 289 288 287 288 290 291 288 286 288 291 288 283 279 282 285 286 284 284 287 286 286 287 287 285 284 283 281 280
301 301 301 302 302 297 292 288 292 298 296 287 282 282 287 290 288 286 286 289 289 290 287 287 287 288 290 281 277 280 284 284 283 284 287 284 283 282 285 285 283 282 280 278
300 301 301 301 302 299 293 298 299 298 291 290 280 277 281 290 283 285 286 284 287 287 286 288 287 287 284 276 278 279 281 282 282 282 283 283 283 282 281 281 281 279 278 277
301 301 301 300 295 290 294 300 299 298 292 283 282 275 272 290 286 287 285 286 282 286 285 285 286 278 271 276 277 277 278 278 278 280 280 280 279 277 277 277 277 276 276 276
301 297 288 284 293 300 298 292 288 286 289 287 281 280 279 288 285 285 283 286 283 281 285 284 277 271 276 277 277 277 277 277 277 277 275 277 277 276 275 275 275 275 274 274
294 286 286 295 299 293 289 282 283 284 282 285 283 284 283 289 283 283 286 283 284 279 283 280 273 272 274 276 276 276 276 276 276 276 276 277 276 275 274 274 274 273 272 271
294 294 296 294 289 286 282 281 282 281 278 283 284 286 289 285 287 285 285 280 283 278 284 276 267 273 275 275 274 275 275 275 274 275 275 275 275 274 274 272 271 270 270 269
293 289 285 285 281 277 277 275 277 279 284 286 286 284 286 286 287 284 283 279 278 281 270 266 269 274 275 275 274 273 274 273 273 272 273 273 271 273 273 271 270 269 268 267
282 278 267 270 265 270 270 275 276 279 285 286 284 284 285 284 280 282 275 276 278 268 263 265 270 272 273 274 274 271 269 269 268 267 267 267 267 266 265 264 262 262 262 261
277 276 265 267 273 273 280 282 283 284 286 285 283 281 282 278 276 277 276 271 265 265 263 264 270 272 272 271 271 268 267 264 265 263 264 260 261 263 263 262 262 262 260 260
276 274 273 275 272 276 278 279 281 284 285 284 281 277 275 273 273 270 266 270 265 263 264 269 271 271 271 271 271 268 266 264 263 262 263 263 261 261 261 262 262 260 260 260
275 271 274 270 270 275 277 278 279 282 280 274 276 271 273 274 267 265 266 262 264 268 269 265 265 266 265 264 266 265 265 264 262 262 263 261 262 263 266 265 265 266 265 261
Wind_Speed
15 16 16 15 11 5 5 1 4 2 1 2 2 3 5 10 8 6 6 12 7 7 8 7 3 6 4 3 2 4 1 3 2 8 5 5 4 3 4 3 2 4 2 6
15 16 16 13 9 4 3 2 3 3 3 3 2 5 8 8 9 7 4 7 6 5 4 5 9 5 3 6 3 3 3 2 3 3 3 5 4 1 2 6 3 6 5 3
15 15 14 9 7 8 5 1 4 4 3 0 2 3 8 5 7 8 11 11 9 3 5 6 4 4 5 4 2 5 5 2 3 4 4 4 5 6 7 3 4 3 8 4
15 13 14 8 9 10 5 1 4 3 3 2 3 3 5 9 4 3 7 3 5 4 6 5 5 6 5 6 4 3 4 1 2 5 8 5 6 10 12 9 8 7 5 5
15 13 14 8 10 14 3 4 2 2 3 6 6 2 2 2 5 3 5 4 4 6 4 2 2 5 4 2 5 3 3 2 1 4 5 2 5 14 15 11 9 11 14 16
15 13 12 7 13 10 3 1 2 3 3 4 4 3 7 7 10 4 5 6 3 4 2 3 3 4 5 4 2 1 1 1 2 4 5 8 6 7 10 3 4 2 5 5
14 12 11 8 14 14 3 4 4 4 4 2 3 9 11 8 11 6 5 4 3 4 2 4 4 4 5 5 7 5 5 4 3 4 3 3 6 11 11 6 5 16 16 6
14 13 11 12 11 22 3 3 4 3 3 4 5 6 4 5 7 6 4 5 3 5 5 3 3 3 3 5 8 8 5 4 0 2 3 8 10 4 3 10 8 6 8 11
15 14 15 15 13 19 8 3 3 3 3 5 6 4 2 3 3 7 3 4 5 5 3 3 2 2 1 3 5 3 5 3 4 1 2 4 4 3 11 11 4 2 7 10
17 16 15 16 15 17 9 3 6 4 2 5 3 1 1 2 2 2 4 6 6 5 2 1 2 3 2 2 2 1 3 1 7 6 6 7 5 11 8 4 3 7 6 10
17 17 15 14 17 17 12 2 10 7 3 4 3 4 3 1 1 1 4 4 3 3 2 1 2 2 3 2 3 3 4 4 4 3 4 8 11 3 2 3 9 9 11 11
19 18 16 14 14 19 19 3 8 7 2 4 2 6 8 6 4 3 3 2 2 3 2 2 1 2 3 1 3 4 2 2 3 6 3 7 12 11 12 11 13 15 12 11
19 17 14 13 13 17 20 4 6 4 1 4 2 8 11 8 8 6 4 1 4 2 2 3 2 3 1 1 4 3 1 3 4 4 7 10 11 12 14 14 12 14 13 15
16 14 13 11 10 15 20 4 7 5 3 2 6 2 4 9 9 8 7 3 2 4 1 2 2 2 2 3 3 2 3 7 7 3 6 3 12 11 10 12 10 12 13 15
13 12 13 11 12 11 11 5 8 8 4 3 3 4 6 5 12 9 6 6 3 1 2 1 3 3 2 2 3 3 5 5 4 3 8 4 6 9 11 12 11 12 13 13
16 15 15 12 13 11 4 2 6 10 4 1 2 3 2 2 7 10 7 4 2 2 2 2 3 4 2 2 2 5 6 7 8 4 4 9 7 14 14 13 11 13 13 11
18 17 18 17 18 6 4 4 5 15 6 2 2 4 2 4 5 2 2 4 3 3 3 2 3 3 2 2 2 5 6 8 10 12 3 6 14 7 11 11 11 12 12 11
20 20 20 20 16 11 4 1 20 12 5 2 2 5 3 4 2 3 2 3 2 2 3 1 3 2 2 3 6 7 7 6 9 9 9 7 7 9 11 11 9 10 10 9
20 19 20 8 3 4 4 17 18 1 2 6 4 4 4 1 2 3 2 3 2 3 3 2 2 2 3 4 6 5 8 6 8 6 8 7 7 8 10 10 11 8 8 8
17 8 4 4 5 30 21 4 3 1 2 2 3 2 4 3 3 2 3 1 3 3 4 4 3 3 5 6 6 6 7 8 9 3 5 7 6 8 10 10 8 8 7 7
3 4 3 12 19 5 2 4 4 3 3 3 4 6 4 1 3 5 3 4 4 3 3 3 2 3 3 5 7 6 6 7 7 6 6 7 7 6 7 8 8 8 9 8
6 9 5 3 4 3 4 3 3 4 6 3 4 3 2 3 3 3 4 3 3 2 3 4 2 3 7 6 6 6 6 7 7 6 6 7 9 8 8 8 7 8 8 8
4 5 5 1 2 4 6 7 4 4 5 5 3 3 2 2 3 2 3 3 2 4 5 2 1 6 6 5 6 7 6 7 7 7 7 8 8 9 7 7 7 7 7 5
4 4 4 2 2 1 3 2 4 2 2 6 5 4 2 1 3 1 4 2 2 3 2 4 2 6 5 5 5 6 4 6 7 7 6 7 7 7 6 6 4 5 5 3
5 5 3 2 2 1 0 2 3 2 2 2 3 3 3 2 4 2 3 4 1 2 4 3 3 6 6 5 5 4 5 4 4 2 5 4 5 6 6 5 4 5 4 4
5 7 4 2 4 3 3 3 2 3 1 1 3 4 4 2 3 4 2 3 4 4 3 3 5 5 5 6 5 4 3 4 3 3 3 4 4 5 3 3 4 4 4 4
5 3 2 2 3 2 2 3 3 3 2 2 3 5 2 3 4 2 0 4 3 4 4 2 3 5 5 4 5 4 4 5 4 3 3 3 3 3 4 5 1 3 4 3
Wind_Direction
300 299 297 290 287 321 83 278 281 274 66 99 200 215 258 336 342 358 315 312 11 356 353 28 109 123 83 66 81 88 73 68 249 241 240 144 129 163 198 231 273 275 258 268
302 301 302 281 269 189 120 266 284 325 155 254 269 285 277 278 303 356 307 310 325 305 313 65 35 38 41 72 99 141 141 130 318 348 67 21 64 166 216 247 235 224 294 283
305 302 304 292 256 178 98 25 315 311 51 338 351 288 284 257 244 270 270 251 288 309 32 35 39 18 15 29 69 81 81 106 171 223 210 257 268 242 249 253 265 284 228 235
305 296 298 262 261 176 99 165 254 232 322 11 277 326 305 327 290 172 292 118 67 34 34 23 25 0 5 22 35 71 91 160 262 266 251 260 273 285 273 250 243 255 300 284
300 295 297 266 199 150 94 159 212 316 296 278 316 288 255 288 310 304 332 334 30 44 94 114 313 358 4 352 2 64 10 255 314 280 271 211 270 275 274 241 255 280 262 256
292 290 295 257 180 139 140 209 311 99 285 325 321 347 21 345 318 293 336 338 70 38 149 199 229 220 272 277 289 159 148 130 35 247 318 328 289 15 331 222 231 272 280 291
287 284 286 280 192 178 134 185 121 110 265 244 262 318 326 350 323 291 300 12 19 357 315 290 285 266 257 258 256 214 180 174 167 252 326 254 249 347 42 47 2 282 250 128
286 277 272 269 237 191 145 159 128 151 251 252 281 278 281 326 323 342 8 358 344 300 358 6 354 353 352 268 234 221 192 127 278 189 213 286 299 9 36 330 293 294 112 132
282 273 264 256 243 206 189 182 140 127 125 255 264 292 292 308 328 342 355 339 331 25 66 50 164 211 231 303 319 44 110 131 141 161 247 263 230 28 338 300 280 128 120 157
280 275 265 248 234 209 179 184 161 107 174 255 155 251 306 100 19 286 302 343 3 9 48 89 214 243 263 255 269 298 81 96 210 227 239 279 305 323 318 210 316 35 97 134
280 277 266 251 230 211 185 162 180 177 194 264 224 211 232 81 156 0 304 20 358 15 26 173 258 204 254 305 256 217 196 164 206 186 212 254 352 350 8 94 33 48 60 75
272 267 260 253 231 214 184 189 177 175 175 248 280 247 213 215 209 133 5 111 293 335 278 235 303 326 3 19 289 9 325 195 278 192 213 80 55 69 49 54 64 38 39 48
264 252 243 241 221 208 187 169 148 126 197 282 274 238 239 224 215 191 171 278 152 327 264 294 324 280 141 318 260 312 307 348 260 159 131 104 77 62 56 56 57 57 43 46
254 245 233 236 224 202 190 161 154 137 127 235 273 181 213 201 187 188 201 170 187 155 111 326 329 276 266 268 310 44 352 324 325 21 51 39 48 44 74 65 43 70 63 50
244 246 230 229 215 214 186 151 172 165 169 200 270 296 234 190 185 185 170 178 141 195 158 209 248 287 315 295 88 35 352 2 333 360 327 42 42 33 70 70 64 54 56 50
235 234 231 227 219 195 107 64 186 183 124 174 263 286 311 116 174 187 184 180 125 163 167 236 285 263 251 259 90 17 31 34 6 354 18 77 61 54 53 68 65 62 67 65
232 228 224 220 216 160 185 180 181 156 118 151 239 278 344 109 112 114 138 151 198 180 206 211 225 251 224 38 96 39 19 33 21 15 343 43 39 44 46 62 70 70 71 64
229 225 219 216 202 140 144 104 145 130 105 200 188 261 356 170 133 121 152 119 135 249 217 195 235 71 77 98 76 34 23 12 38 29 39 42 59 48 43 43 43 51 53 59
227 214 200 191 144 143 138 139 136 77 149 171 181 162 222 108 99 106 55 111 146 229 221 212 64 41 55 66 85 54 31 18 343 35 31 25 68 57 42 38 29 38 37 47
188 133 108 150 162 114 106 130 126 154 238 147 199 151 187 148 141 112 124 136 205 212 212 99 72 81 93 76 71 60 38 24 12 348 21 358 50 47 43 40 38 36 42 55
80 127 148 116 131 88 144 110 148 169 182 186 199 187 145 204 149 151 201 175 194 218 169 136 126 129 111 106 81 65 59 51 46 50 41 44 44 56 60 50 40 42 45 51
111 107 99 73 82 127 93 96 111 198 212 176 161 139 128 139 245 153 171 191 176 229 79 90 120 107 116 105 88 74 70 76 77 65 67 57 55 50 55 51 46 47 54 53
72 62 72 100 8 108 162 161 167 190 171 172 148 118 114 127 209 125 155 175 190 91 47 118 112 119 110 114 109 82 72 82 83 74 75 73 67 57 76 88 81 88 76 65
67 93 81 137 350 106 182 143 156 194 124 131 119 115 153 131 65 77 97 247 59 72 104 203 105 117 108 96 99 103 79 75 78 73 74 72 75 68 57 58 55 79 74 43
67 62 68 52 227 256 1 76 87 36 90 124 105 72 83 23 79 24 113 54 27 195 209 188 139 129 131 119 114 115 110 103 96 90 92 73 68 75 64 39 48 69 66 62
58 38 66 4 59 17 34 21 58 11 34 79 57 103 73 41 101 62 173 129 212 208 184 148 125 119 126 134 134 131 134 123 117 98 102 97 91 102 105 61 56 56 75 72
50 26 40 103 102 56 45 12 339 335 64 99 97 75 180 95 66 92 169 183 192 140 115 92 119 141 148 139 133 139 133 127 124 113 108 128 127 117 110 105 66 89 91 93